| time (UTC) | temp C | wind direction | speed KPH | gust KPH | rain 1hr cm | rain 24hr cm | rain mn cm | humidity % | barometer mb |
| 20260505021902 | 20 | 259 | 8.0 | 14.5 | 0.00 | 0.00 | 0.00 | 65 | 1014.1 |
| 20260505021222 | -17 | 259 | 9.7 | 6.4 | 0.00 | 0.00 | 0.00 | ||
| 20260505020113 | -17 | 264 | 4.8 | 6.4 | 0.00 | 0.00 | 0.00 | ||
| 20260505015217 | 21 | 259 | 4.8 | 16.1 | 0.00 | 0.00 | 0.00 | 62 | 1013.9 |
| 20260505014537 | 21 | 263 | 4.8 | 12.9 | 0.00 | 0.00 | 0.00 | 61 | 1014.0 |
| 20260505013857 | -17 | 260 | 4.8 | 0.0 | 0.00 | 0.00 | 0.00 | ||
| 20260505013004 | 21 | 266 | 6.4 | 16.1 | 0.00 | 0.00 | 0.00 | 60 | 1013.7 |
| 20260505012321 | -17 | 261 | 8.0 | 1.6 | 0.00 | 0.00 | 0.00 | ||
| 20260505010957 | 21 | 265 | 4.8 | 14.5 | 0.00 | 0.00 | 0.00 | 58 | 1013.7 |
| 20260505010317 | -17 | 265 | 6.4 | 3.2 | 0.00 | 0.00 | 0.00 | ||
| 20260505005211 | -17 | 258 | 6.4 | 8.0 | 0.00 | 0.00 | 0.00 | ||
| 20260505003639 | 22 | 259 | 8.0 | 14.5 | 0.00 | 0.00 | 0.00 | 54 | 1013.7 |
| 20260505002959 | -17 | 259 | 9.7 | 8.0 | 0.00 | 0.00 | 0.00 | ||
| 20260505002105 | -17 | 259 | 8.0 | 12.9 | 0.00 | 0.00 | 0.00 | ||
| 20260505001210 | -17 | 260 | 8.0 | 9.7 | 0.00 | 0.00 | 0.00 | ||
| 20260505000100 | 23 | 259 | 11.3 | 19.3 | 0.00 | 0.00 | 0.00 | 51 | 1014.1 |
| 20260504235420 | 23 | 259 | 12.9 | 19.3 | 0.00 | 0.00 | 0.00 | 50 | 1014.2 |
| 20260504234740 | -17 | 259 | 12.9 | 14.5 | 0.00 | 0.00 | 0.00 | ||
| 20260504233744 | -17 | 259 | 11.3 | 9.7 | 0.00 | 0.00 | 0.00 | ||
| 20260504232820 | 23 | 259 | 11.3 | 19.3 | 0.00 | 0.00 | 0.00 | 49 | 1014.1 |
| 20260504232140 | 23 | 259 | 12.9 | 19.3 | 0.00 | 0.00 | 0.00 | 46 | 1014.2 |
| 20260504231500 | -17 | 260 | 16.1 | 14.5 | 0.00 | 0.00 | 0.00 | ||
| 20260504225209 | -17 | 260 | 16.1 | 16.1 | 0.00 | 0.00 | 0.00 | ||
| 20260504223814 | -17 | 259 | 11.3 | 9.7 | 0.00 | 0.00 | 0.00 | ||
| 20260504222850 | -17 | 259 | 9.7 | 12.9 | 0.00 | 0.00 | 0.00 | ||
| 20260504221957 | 25 | 259 | 14.5 | 29.0 | 0.00 | 0.00 | 0.00 | 40 | 1014.6 |
| 20260504221317 | 25 | 259 | 8.0 | 19.3 | 0.00 | 0.00 | 0.00 | 38 | 1014.6 |
| 20260504220637 | -17 | 259 | 11.3 | 6.4 | 0.00 | 0.00 | 0.00 | ||
| 20260504215313 | 25 | 259 | 9.7 | 24.1 | 0.00 | 0.00 | 0.00 | 40 | 1014.8 |
| 20260504214633 | 25 | 259 | 14.5 | 27.4 | 0.00 | 0.00 | 0.00 | 39 | 1014.9 |
| 20260504213953 | 25 | 259 | 17.7 | 27.4 | 0.00 | 0.00 | 0.00 | 40 | 1014.8 |
| 20260504213313 | 25 | 259 | 12.9 | 27.4 | 0.00 | 0.00 | 0.00 | 40 | 1014.8 |
| 20260504212633 | 25 | 258 | 11.3 | 20.9 | 0.00 | 0.00 | 0.00 | 38 | 1014.9 |
| 20260504211953 | 26 | 259 | 16.1 | 25.7 | 0.00 | 0.00 | 0.00 | 41 | 1014.9 |
| 20260504211313 | -17 | 258 | 8.0 | 17.7 | 0.00 | 0.00 | 0.00 | ||
| 20260504205704 | 25 | 258 | 16.1 | 24.1 | 0.00 | 0.00 | 0.00 | 41 | 1015.2 |
| 20260504205024 | 25 | 260 | 16.1 | 29.0 | 0.00 | 0.00 | 0.00 | 42 | 1015.3 |
| 20260504204344 | -17 | 258 | 12.9 | 14.5 | 0.00 | 0.00 | 0.00 | ||
| 20260504203450 | -17 | 259 | 12.9 | 12.9 | 0.00 | 0.00 | 0.00 | ||
| 20260504201744 | -17 | 259 | 17.7 | 9.7 | 0.00 | 0.00 | 0.00 | ||
| 20260504200636 | -17 | 259 | 11.3 | 6.4 | 0.00 | 0.00 | 0.00 | ||
| 20260504195741 | 26 | 260 | 12.9 | 20.9 | 0.00 | 0.00 | 0.00 | 40 | 1016.1 |
| 20260504195101 | -17 | 259 | 14.5 | 14.5 | 0.00 | 0.00 | 0.00 | ||
| 20260504194208 | -17 | 259 | 12.9 | 8.0 | 0.00 | 0.00 | 0.00 | ||
| 20260504193244 | 25 | 259 | 17.7 | 29.0 | 0.00 | 0.00 | 0.00 | 42 | 1016.4 |
| 20260504192604 | 25 | 260 | 11.3 | 25.7 | 0.00 | 0.00 | 0.00 | 42 | 1016.6 |
| 20260504191924 | -17 | 259 | 11.3 | 9.7 | 0.00 | 0.00 | 0.00 | ||
| 20260504191031 | 25 | 259 | 16.1 | 24.1 | 0.00 | 0.00 | 0.00 | 42 | 1016.7 |
| 20260504190351 | 25 | 259 | 9.7 | 17.7 | 0.00 | 0.00 | 0.00 | 42 | 1016.9 |
| 20260504185711 | -17 | 259 | 14.5 | 11.3 | 0.00 | 0.00 | 0.00 | ||
| 20260504183843 | 26 | 259 | 9.7 | 19.3 | 0.00 | 0.00 | 0.00 | 39 | 1016.9 |
| 20260504183203 | 25 | 259 | 12.9 | 29.0 | 0.00 | 0.00 | 0.00 | 42 | 1017.0 |
| 20260504182523 | 25 | 261 | 9.7 | 35.4 | 0.00 | 0.00 | 0.00 | 41 | 1017.2 |
| 20260504181843 | 25 | 260 | 19.3 | 32.2 | 0.00 | 0.00 | 0.00 | 43 | 1017.3 |
| 20260504181203 | -17 | 259 | 17.7 | 1.6 | 0.00 | 0.00 | 0.00 | ||
| 20260504180023 | -17 | 260 | 14.5 | 11.3 | 0.00 | 0.00 | 0.00 | ||
| 20260504174700 | -17 | 257 | 4.8 | 12.9 | 0.00 | 0.00 | 0.00 | ||
| 20260504173705 | -17 | 260 | 16.1 | 14.5 | 0.00 | 0.00 | 0.00 | ||
| 20260504172553 | 25 | 285 | 1.6 | 12.9 | 0.00 | 0.00 | 0.00 | 42 | 1017.7 |
| 20260504171913 | -17 | 262 | 11.3 | 6.4 | 0.00 | 0.00 | 0.00 | ||
| 20260504171019 | -17 | 267 | 9.7 | 16.1 | 0.00 | 0.00 | 0.00 | ||
| 20260504170125 | -17 | 259 | 17.7 | 16.1 | 0.00 | 0.00 | 0.00 | ||
| 20260504160123 | 23 | 258 | 9.7 | 27.4 | 0.00 | 0.00 | 0.00 | 43 | 1018.4 |
| 20260504151013 | -17 | 261 | 4.8 | 1.6 | 0.00 | 0.00 | 0.00 | ||
| 20260504140643 | -17 | 257 | 4.8 | 4.8 | 0.00 | 0.00 | 0.00 | ||
| 20260504130352 | -17 | 298 | 1.6 | 3.2 | 0.00 | 0.00 | 0.00 | ||
| 20260504110132 | -17 | 84 | 4.8 | 3.2 | 0.00 | 0.00 | 0.00 | ||
| 20260504100453 | 15 | 257 | 3.2 | 8.0 | 0.00 | 0.00 | 0.00 | 78 | 1017.8 |
| 20260504081921 | 16 | 260 | 8.0 | 11.3 | 0.00 | 0.00 | 0.00 | 70 | 1018.2 |
| 20260504081241 | -17 | 259 | 6.4 | 6.4 | 0.00 | 0.00 | 0.00 | ||
| 20260504080346 | 15 | 259 | 4.8 | 8.0 | 0.00 | 0.00 | 0.00 | 70 | 1018.2 |
| 20260504045645 | 17 | 260 | 4.8 | 9.7 | 0.00 | 0.00 | 0.00 | 68 | 1019.3 |
| 20260504045005 | -17 | 260 | 8.0 | 3.2 | 0.00 | 0.00 | 0.00 | ||
| 20260504043857 | 17 | 260 | 9.7 | 14.5 | 0.00 | 0.00 | 0.00 | 69 | 1019.6 |
| 20260504043217 | 17 | 260 | 9.7 | 16.1 | 0.00 | 0.00 | 0.00 | 68 | 1019.6 |
| 20260504042537 | 17 | 260 | 9.7 | 14.5 | 0.00 | 0.00 | 0.00 | 68 | 1019.7 |
| 20260504041857 | -17 | 260 | 6.4 | 6.4 | 0.00 | 0.00 | 0.00 | ||
| 20260504041003 | -17 | 260 | 6.4 | 6.4 | 0.00 | 0.00 | 0.00 | ||
| 20260504040007 | -17 | 259 | 4.8 | 6.4 | 0.00 | 0.00 | 0.00 | ||
| 20260504034901 | 17 | 259 | 6.4 | 14.5 | 0.00 | 0.00 | 0.00 | 70 | 1019.9 |
| 20260504034221 | -17 | 260 | 6.4 | 4.8 | 0.00 | 0.00 | 0.00 | ||
| 20260504033326 | 17 | 260 | 8.0 | 12.9 | 0.00 | 0.00 | 0.00 | 69 | 1019.8 |
| 20260504032646 | 17 | 260 | 8.0 | 12.9 | 0.00 | 0.00 | 0.00 | 69 | 1019.8 |
| 20260504032006 | -17 | 260 | 9.7 | 4.8 | 0.00 | 0.00 | 0.00 | ||
| 20260504030351 | 18 | 260 | 9.7 | 16.1 | 0.00 | 0.00 | 0.00 | 66 | 1020.0 |
| 20260504025711 | -17 | 261 | 11.3 | 8.0 | 0.00 | 0.00 | 0.00 | ||
| 20260504024529 | -17 | 259 | 9.7 | 9.7 | 0.00 | 0.00 | 0.00 | ||
| 20260504023420 | -17 | 260 | 8.0 | 3.2 | 0.00 | 0.00 | 0.00 |